Showing default

EXPLORER 30, 1738

Orbit data source: Space-Track

EXPLORER 30, 1738 is a payload satellite owned by NRL (US) in LEO that was launched on Fri, 19 Nov 1965 UTC via an SCOUT X-4 launch vehicle from the Wallops Island (WLPIS). Payloads include a variety of satellites, spacecraft, and rockets equipped with specific instruments for various scientific and technological missions. These include communications satellites like Starlink; space stations such as the ISS; scientific satellites like the Hubble; Earth observation satellites from companies like Planet Labs, Umbra, and HawkEye 360; GPS; miniature CubeSats for education and research; and military/defense satellites.

Loading next visibility...
EXPLORER 30 details
Identifier
1738, 1965-093A
Orbit
LEO
Last TLE update17 hours ago
Origin
Flag of USNRL (US)
ManufacturerNRL
MissionCivil Astronomy
Bus & MotorNRL 24", Unknown motor
Mass57 kg wet, 57 kg dry
Launch date (UTC)
1965-11-19 (59 years ago)
Launch vehicle
SCOUT X-4
Launch site
Wallops Island (WLPIS)
Object type
Payload
Rocket body
Debris
Shape & HBRSphere, 0.61 m
Radar Cross Section0.292 m², Medium (>0.1 m² and < 1m²)

Expand to show TLE details & history

TLE from 17 hours ago
0 EXPLORER 30
1 01738U 65093A   24355.82405479  .00000445  00000-0  16889-3 0  9998
2 01738  59.7090 292.9174 0122034 257.0438 101.6949 14.41366256 78043
Epoch: 2024-12-20T19:46Z
Definitive object data (Epoch: 2024-12-20T19:46:38.333Z)
Latitude-0.00002°
Longitude-93.62636°
Altitude774.159 km
Speed7.458 km/s
True Right ascension19h 31m 40s
True Declination0° 00' 00"
Sunlit
Object was in daylight at TLE epoch
Visualization TLE readout
Latitude-20.59433°
Longitude-108.57889°
Altitude742.023 km
Speed7.493 km/s
Apparent Right ascension20h 30m 48s
Apparent Declination-34° 54' 20"
Sunlit
Object is in daylight
Visualization observer readout
Local Sidereal Time11:20:39
Azimuth95.231° ESE
Elevation-56.222°
Doppler factor1
Orbital elements
Apogee altitude840.288 km
Perigee altitude666.234 km
Semi-major axis7,131.398 km
Eccentricity0.0122034
Inclination59.709°
RAAN292.9174°
Arg. of periapsis257.0438°
True anomaly103.05993°
Mean anomaly101.6949°
Eccentric anomaly102.37785°
Mean motion3.60397 °/min
BSTAR0.00016889
Orbital period99.89 mins
Loading maneuver chart data...
Loading historical data...
Loading historical data...
Loading historical data...
Loading historical data...
Loading historical data...
Loading historical data...
Loading historical data...
Other satellites on launch #93 in the year 1965 (1965-11-19 UTC)

EXPLORER 30 Visibility forecast

Observer location: undefined°, undefined

Span
Click to sort rows by Start time (UTC) header in descending order
Start Az.
Max El. time (UTC)
Max El. Az.
Max El.
End time (UTC)
End Az.
7 mins2024-12-21 20:52:52.755Z161.774° S2024-12-21 20:55:52.755Z122.772° SE22.582°2024-12-21 20:59:52.755Z69.821° E
9 mins2024-12-21 22:35:52.755Z242.083° WSW2024-12-21 22:38:52.755Z291.76° WNW39.435°2024-12-21 22:44:52.755Z32.69° NE
5 mins2024-12-22 00:21:52.755Z309.103° NW2024-12-22 00:23:52.755Z332.863° NNW15.935°2024-12-22 00:26:52.755Z7.376° NNE
5 mins2024-12-22 03:53:52.755Z0.26° NNE2024-12-22 03:55:52.755Z24.114° NE15.563°2024-12-22 03:58:52.755Z58.461° ENE
9 mins2024-12-22 05:36:52.755Z333.664° NNW2024-12-22 05:40:52.755Z58.741° ENE39.438°2024-12-22 05:45:52.755Z124.202° SE
7 mins2024-12-22 07:20:52.755Z283.495° WNW2024-12-22 07:23:52.755Z240.406° WSW22.363°2024-12-22 07:27:52.755Z191.284° SSW
|